Location: Newark
(41.6500°N, 71.4833°W)
Time: 12:01:35
(UTC+00:00)

deb Explorer IX - Pass Details

Date: 30 January 2020
Orbit: 549 x 1099 km, 38.8° (Epoch: 19 February)

Event Time Altitude Azimuth Distance (km) Brightness Sun altitude
Rises 02:28:49 0° 260° (W) 3,647 ? -50.1°
Enters shadow 02:30:43 - 259° (W) 2,985 ? -50.4°
Reaches altitude 10° 02:31:22 10° 259° (WSW) 2,767 - -50.5°
Maximum altitude 02:38:10 71° 177° (S) 1,125 - -51.7°
Drops below altitude 10° 02:45:26 10° 95° (E) 2,949 - -52.9°
Sets 02:48:13 0° 93° (E) 3,901 - -53.3°
